logo tempoitalia

Diretta Meteo K13-A Sea, Olandalunedì 31 agosto ore 07:25

Mappa
Sereno 18 °C Sereno 24 Ore: T.min 18 T.max 19
Ponente Sud-Ovest Km/h 37 Punto di rugiada: 14 °C Umidità: 77% Visibilità: 0 Km
Il sole sorge alle: 06:55 Il sole tramonta alle: 20:39
31 Agosto 2026 07:25 tempo osservato: Sereno Sereno 18 77 1003 vento: Nord SO 37
31 Agosto 2026 06:55 tempo osservato: Sereno Sereno 18 77 1003 vento: Nord SO 38.8
31 Agosto 2026 06:25 tempo osservato: Sereno Sereno 18 77 1003 vento: Nord SO 40.7
31 Agosto 2026 05:55 tempo osservato: Sereno Sereno 18 77 1002 vento: Nord SO 44.4
31 Agosto 2026 05:25 tempo osservato: Sereno Sereno 18 82 1002 vento: Nord SO 44.4
31 Agosto 2026 04:55 tempo osservato: Sereno Sereno 18 88 1003 vento: Nord S/SO 38.8
31 Agosto 2026 04:25 tempo osservato: Sereno Sereno 19 82 1003 vento: Nord SO 40.7
31 Agosto 2026 03:55 tempo osservato: Sereno Sereno 19 82 1004 vento: Nord S/SO 37
31 Agosto 2026 03:25 tempo osservato: Sereno Sereno 19 82 1004 vento: Nord SO 38.8
31 Agosto 2026 02:55 tempo osservato: Sereno Sereno 19 88 1003 vento: Nord SO 37
31 Agosto 2026 02:25 tempo osservato: Sereno Sereno 19 82 1003 vento: Nord SO 38.8
31 Agosto 2026 01:55 tempo osservato: Sereno Sereno 19 82 1004 vento: Nord SO 35.2
31 Agosto 2026 01:25 tempo osservato: Sereno Sereno 19 88 1004 vento: Nord S/SO 37
31 Agosto 2026 00:55 tempo osservato: Sereno Sereno 19 88 1005 vento: Nord S/SO 38.8
31 Agosto 2026 00:25 tempo osservato: Sereno Sereno 19 88 1005 vento: Nord S/SO 37
30 Agosto 2026 23:55 tempo osservato: Sereno Sereno 19 88 1005 vento: Nord S/SO 38.8
30 Agosto 2026 23:25 tempo osservato: Sereno Sereno 19 88 1006 vento: Nord S/SO 40.7
30 Agosto 2026 22:55 tempo osservato: Sereno Sereno 19 82 1006 vento: Nord S/SO 40.7
30 Agosto 2026 22:25 tempo osservato: Sereno Sereno 19 82 1006 vento: Nord S/SO 40.7
30 Agosto 2026 21:55 tempo osservato: Sereno Sereno 19 82 1005 vento: Nord S/SO 37
30 Agosto 2026 21:25 tempo osservato: Sereno Sereno 19 82 1006 vento: Nord S/SO 35.2
30 Agosto 2026 20:55 tempo osservato: Sereno Sereno 19 88 1006 vento: Nord S/SO 35.2
30 Agosto 2026 20:25 tempo osservato: Sereno Sereno 19 88 1006 vento: Nord S/SO 35.2
30 Agosto 2026 19:55 tempo osservato: Sereno Sereno 19 88 1007 vento: Nord S 35.2
30 Agosto 2026 19:25 tempo osservato: Sereno Sereno 19 88 1007 vento: Nord S 33.3
30 Agosto 2026 18:55 tempo osservato: Sereno Sereno 19 82 1006 vento: Nord S 35.2
30 Agosto 2026 18:25 tempo osservato: Sereno Sereno 19 82 1007 vento: Nord S 31.5
30 Agosto 2026 17:55 tempo osservato: Sereno Sereno 19 82 1007 vento: Nord S/SO 27.8
30 Agosto 2026 17:25 tempo osservato: Sereno Sereno 19 82 1007 vento: Nord S/SO 24
30 Agosto 2026 16:55 tempo osservato: Sereno Sereno 19 82 1007 vento: Nord S/SO 20.3
30 Agosto 2026 16:25 tempo osservato: Sereno Sereno 19 77 1007 vento: Nord SO 20.3
30 Agosto 2026 15:55 tempo osservato: Sereno Sereno 19 77 1007 vento: Nord SO 20.3
30 Agosto 2026 15:25 tempo osservato: Sereno Sereno 18 88 1007 vento: Nord O/SO 20.3
30 Agosto 2026 14:55 tempo osservato: Sereno Sereno 19 77 1008 vento: Nord O 22.2
30 Agosto 2026 14:25 tempo osservato: Sereno Sereno 19 82 1008 vento: Nord O/SO 20.3
30 Agosto 2026 13:55 tempo osservato: Sereno Sereno 19 82 1007 vento: Nord O 18.5
30 Agosto 2026 13:25 tempo osservato: Sereno Sereno 19 77 1007 vento: Nord O 18.5
30 Agosto 2026 12:55 tempo osservato: Sereno Sereno 19 82 1007 vento: Nord O 16.7
30 Agosto 2026 12:25 tempo osservato: Sereno Sereno 19 82 1008 vento: Nord O/NO 16.7
30 Agosto 2026 11:55 tempo osservato: Sereno Sereno 18 88 1007 vento: Nord O/NO 16.7
30 Agosto 2026 11:25 tempo osservato: Sereno Sereno 18 88 1007 vento: Nord O/NO 20.3
30 Agosto 2026 10:55 tempo osservato: Sereno Sereno 18 88 1007 vento: Nord O/NO 27.8
30 Agosto 2026 10:25 tempo osservato: Sereno Sereno 18 88 1007 vento: Nord O/NO 25.9
30 Agosto 2026 09:55 tempo osservato: Sereno Sereno 19 82 1006 vento: Nord O/NO 22.2
30 Agosto 2026 09:25 tempo osservato: Sereno Sereno 18 88 1006 vento: Nord NO 24
30 Agosto 2026 08:55 tempo osservato: Sereno Sereno 18 88 1006 vento: Nord NO 29.6
30 Agosto 2026 08:25 tempo osservato: Sereno Sereno 18 88 1005 vento: Nord O/NO 27.8
30 Agosto 2026 07:55 tempo osservato: Sereno Sereno 18 88 1005 vento: Nord O 27.8